Weather History for KBUY - January, 2012

Change the Weather History Date:

Tuesday, January 17, 2012

  Actual Average Record
Temperature  
Mean Temperature 53 °F -  
Max Temperature 63 °F 50 °F 52 °F (2015)
Min Temperature 43 °F 25 °F 24 °F (2015)
Degree Days  
Heating Degree Days 12    
Growing Degree Days 3 (Base 50)    
Moisture  
Dew Point 44 °F    
Average Humidity 71    
Maximum Humidity 89    
Minimum Humidity 58    
Precipitation  
Precipitation 0.08 in - - ()
Sea Level Pressure  
Sea Level Pressure 30.05 in    
Wind  
Wind Speed 8 mph (SSW)    
Max Wind Speed 20 mph    
Max Gust Speed 29 mph    
Visibility 10 miles    
Events Rain    
Averages and records for this station are not official NWS values.
T = Trace of Precipitation, MM = Missing Value Source: NWS Daily Summary

Daily Weather History Graph

Daily Weather History Graph

Search for Another Location

Airport or City:

Trip Planner

Search our weather history database for the weather conditions in past years. The results will help you decide how hot, cold, wet, or windy it might be!

Date:

Astronomy

Jan. 17, 2012 Rise Set
Actual Time 7:27 AM EST 5:28 PM EST
Civil Twilight 6:59 AM EST 5:56 PM EST
Nautical Twilight 6:28 AM EST 6:27 PM EST
Astronomical Twilight 5:57 AM EST 6:58 PM EST
Moon 1:46 AM EST (1/17) 12:20 PM EST (1/17)
Length of Visible Light 10h 56m
Length of Day
10h 01m
Waning Crescent, 35% of the Moon is Illuminated
Jan 17
Waning Crescent
Jan 23
New
Jan 30
First Quarter
Feb 7
Full
Feb 14
Last Quarter

Hourly Weather History & Observations

Time (EST) Temp. Windchill Dew Point Humidity Pressure Visibility Wind Dir Wind Speed Gust Speed Precip Events Conditions
12:54 AM 45.0 °F 42.6 °F 32.0 °F 60% 30.30 in 10.0 mi SW 4.6 mph - N/A   Overcast
2:54 AM 43.0 °F 41.3 °F 33.1 °F 68% 30.26 in 10.0 mi SW 3.5 mph - N/A   Clear
3:54 AM 44.1 °F 41.5 °F 34.0 °F 68% 30.24 in 10.0 mi Variable 4.6 mph - N/A   Partly Cloudy
4:54 AM 44.1 °F 40.8 °F 35.1 °F 71% 30.22 in 10.0 mi SSW 5.8 mph - N/A   Scattered Clouds
5:54 AM 44.1 °F 40.8 °F 36.0 °F 73% 30.20 in 10.0 mi SW 5.8 mph - N/A   Clear
6:54 AM 44.1 °F 39.0 °F 37.0 °F 76% 30.19 in 10.0 mi SW 9.2 mph - N/A   Clear
7:54 AM 44.1 °F 40.1 °F 37.0 °F 76% 30.17 in 10.0 mi SW 6.9 mph - N/A   Clear
8:54 AM 46.0 °F 42.5 °F 39.0 °F 76% 30.17 in 10.0 mi SW 6.9 mph - N/A   Partly Cloudy
9:54 AM 53.1 °F - 43.0 °F 69% 30.15 in 10.0 mi SSW 11.5 mph 19.6 mph N/A   Clear
10:54 AM 55.9 °F - 43.0 °F 62% 30.14 in 10.0 mi SW 19.6 mph 26.5 mph N/A   Mostly Cloudy
11:54 AM 57.0 °F - 44.1 °F 62% 30.08 in 10.0 mi SW 19.6 mph 28.8 mph 0.00 in Rain Light Rain
12:54 PM 57.9 °F - 46.0 °F 65% 30.03 in 10.0 mi SSW 16.1 mph 26.5 mph 0.00 in Rain Light Rain
1:54 PM 62.1 °F - 46.9 °F 58% 30.00 in 10.0 mi SSW 12.7 mph 25.3 mph 0.00 in   Scattered Clouds
3:54 PM 63.0 °F - 48.0 °F 58% 29.97 in 10.0 mi SSW 11.5 mph 26.5 mph N/A   Overcast
4:54 PM 62.1 °F - 48.0 °F 60% 29.94 in 10.0 mi SSW 8.1 mph - N/A   Overcast
5:54 PM 60.1 °F - 48.9 °F 67% 29.93 in 10.0 mi South 6.9 mph - N/A   Mostly Cloudy
6:54 PM 60.1 °F - 48.9 °F 67% 29.93 in 10.0 mi South 12.7 mph - N/A   Overcast
7:54 PM 61.0 °F - 48.9 °F 64% 29.92 in 10.0 mi SSW 12.7 mph 18.4 mph N/A   Overcast
8:26 PM 57.2 °F - 51.8 °F 82% 29.92 in 10.0 mi SSW 6.9 mph - 0.00 in   Overcast
8:54 PM 57.9 °F - 51.1 °F 78% 29.90 in 10.0 mi South 9.2 mph - 0.00 in Rain Light Rain
9:08 PM 57.2 °F - 51.8 °F 82% 29.91 in 10.0 mi SW 8.1 mph - 0.01 in Rain Light Rain
9:54 PM 57.0 °F - 54.0 °F 89% 29.88 in 4.0 mi South 16.1 mph 25.3 mph 0.06 in Rain Rain
10:54 PM 57.0 °F - 53.1 °F 87% 29.82 in 10.0 mi SSW 9.2 mph 19.6 mph 0.02 in   Mostly Cloudy
11:54 PM 55.9 °F - 52.0 °F 87% 29.86 in 10.0 mi SW 8.1 mph - N/A   Scattered Clouds